User: anonymous
Location: Unspecified
(0.0000°N, 0.0000°E)
Time: 19:20:34
(UTC+02:00)
Language:

Cosmos 2251 - Orbit

View from above orbital plane
View from above orbital plane
View from above satellite
View from above satellite

Ground track
Ground track

The orbit data is extracted from the following two-line orbital elements,

1 22675U 93036A   14234.75303223  .00000039  00000-0  24159-4 0  3296
2 22675 074.0395 294.6656 0026236 303.3143 195.7700 14.32336901106633
Epoch (UTC): 22 August 2014 18:04:21
Eccentricity: 0.0026236
inclination: 74.0395°
perigee height: 765 km
apogee height: 803 km
right ascension of ascending node: 294.6656°
argument of perigee: 303.3143°
revolutions per day: 14.32336901
mean anomaly at epoch: 195.7700°
orbit number at epoch: 10663

The dashed part of the orbit path shows where the satellite is in the earth's shadow,  

DLR